Main page


Airports :

Karaj, Iran

Payam International Airport

latitude: 35-46-34N, longitude: 050-49-36E, elevation: 1271 m

Current weather observation

The report was made 59 minutes ago, at 09:00 UTC
Wind 14 kt from the West/Northwest
Temperature 13°C
Humidity 28%
Pressure 1013 hPa
Visibility 10 km or more
Few clouds at a height of 3000 ft

METAR: OIIP 180900Z 30014KT 9999 FEW030 13/M05 Q1013

Time: 13:29 (09:59 UTC)

TAF: missing

Weather observations and forecasts of more than 4000 airports (METAR and TAF reports).

The available stations are represented by yellow and red dots on the map.

Hover mouse over dot to see the name of the station.

Then click to see weather observations and forecasts.

To change the map : click on the green buttons with a black cross to zoom in, on the green button with a dash to zoom out, or on the green arrows for adjacent maps.